CZ-6A R/B, 63921

Orbit data source: Space-Track

CZ-6A R/B, 63921 is space debris in LEO originally from a launch on Sun, 11 May 2025 UTC launched from the Taiyaun Space Center, China (TSC). Debris objects in space refer to the collection of defunct objects orbiting the Earth. Examples of debris include non-operational satellites, rocket bodies, and fragments generated from explosions, collisions, or faulty payload assembly.

Loading next visibility...
Identifier
63921, 2025-096D
Orbit
LEO
Country
Flag of CNCN / PRC
Related business
Manufacturer
Unknown
Mission
Spacecraft
Bus & Motor
Unknown
Mass
Unknown
Launch date (UTC)
2025-05-11 (10 months ago)
Launch vehicle
Unknown
Launch site
Taiyaun Space Center, China (TSC)
Object type
Payload
Rocket body
Debris
Shape & HBR
Unknown shape, 3.3 m
Radar Cross Section
Large (>1 m²)

Expand to show TLE details & history
Last TLE update: 8 hours ago

TLE from 8 hours ago
0 CZ-6A R/B
1 63921U 25096D   26061.80365892  .00000491  00000-0  19568-3 0  9995
2 63921  85.9890 232.5681 0014451  39.4207 320.8033 14.26529039 41958
Epoch: 2026-03-02T19:17Z
TLE epoch observation values (Epoch: 2026-03-02T19:17:16.130Z)
Latitude
0.00001°
Longitude
142.65907°
Altitude
798.352 km
Speed
7.458 km/s
True Right ascension
15h 30m 16s
True Declination
0° 00' 00"
Sunlit
Object was in daylight at epoch
Visualization orbit readout
Latitude
Unknown
Longitude
Unknown
Altitude
Unknown
Speed
Unknown
Apparent Right ascension
Unknown
Apparent Declination
Unknown
Sunlit
N/A
Visualization observer readout
Local Sidereal Time
07:14:24
Azimuth
Unknown
Elevation
Unknown
Doppler factor
Unknown
Orbital elements
Apogee altitude
810.714 km
Perigee altitude
789.967 km
Semi-major axis
7,178.477 km
Eccentricity
0.00145
Inclination
85.989°
RAAN
232.5681°
Arg. of periapsis
39.4207°
True anomaly
320.6985°
Mean anomaly
320.8033°
Eccentric anomaly
320.75091°
Mean motion
3.56857 °/min
Orbital period
100.88 mins
BSTAR
0.00019568
Loading maneuver chart data...
Computing Atmospheric mass density...
Loading historical data...
Loading historical data...
Loading historical data...
Loading historical data...
Loading historical data...
Loading historical data...
Loading historical data...
Other satellites on launch #96 in the year 2025 (2025-05-11 UTC)

Documentation

Showing up to 5 results
|